This is the latest recevied weather packets stored in our database for station/object WA0LM. If no packets are shown the sender has not sent any weather packets the latest 10 day(s).
| Time | Temp. | Humidity | Pressure | Rain* | Wind** | Luminosity | Snow |
|---|---|---|---|---|---|---|---|
| 1777763933 | 17.22° C | 40% | 1008.2 hPa | 0 mm | - | 109 W/m² | - |
| 1777763631 | 17.22° C | 41% | 1008.3 hPa | 0 mm | - | 116 W/m² | - |
| 1777763329 | 17.22° C | 41% | 1008.2 hPa | 0 mm | - | 134 W/m² | - |
| 1777763027 | 17.22° C | 42% | 1008.3 hPa | 0 mm | - | 142 W/m² | - |
| 1777762724 | 17.78° C | 40% | 1008.2 hPa | 0 mm | - | 189 W/m² | - |
| 1777762420 | 17.22° C | 41% | 1008.2 hPa | 0 mm | - | 153 W/m² | - |
| 1777762117 | 17.78° C | 40% | 1008.1 hPa | 0 mm | - | 137 W/m² | - |
| 1777761813 | 17.22° C | 42% | 1008.4 hPa | 0 mm | - | 140 W/m² | - |
| 1777761511 | 17.22° C | 39% | 1008.4 hPa | 0 mm | - | 127 W/m² | - |
| 1777761209 | 17.22° C | 42% | 1008.6 hPa | 0 mm | - | 114 W/m² | - |
| 1777760906 | 17.22° C | 44% | 1008.4 hPa | 0 mm | - | 101 W/m² | - |
| 1777760604 | 17.22° C | 43% | 1008.5 hPa | 0 mm | - | 99 W/m² | - |
| 1777760299 | 17.22° C | 41% | 1008.4 hPa | 0 mm | - | 80 W/m² | - |
| 1777759996 | 17.22° C | 41% | 1008.4 hPa | 0 mm | - | 78 W/m² | - |
| 1777759693 | 16.67° C | 44% | 1008.4 hPa | 0 mm | - | 109 W/m² | - |
| 1777759388 | 17.22° C | 44% | 1008.5 hPa | 0 mm | - | 99 W/m² | - |
| 1777759086 | 16.67° C | 42% | 1008.7 hPa | 0 mm | - | 89 W/m² | - |
| 1777758783 | 16.67° C | 45% | 1008.9 hPa | 0 mm | - | 73 W/m² | - |
| 1777758480 | 17.22° C | 39% | 1009 hPa | 0 mm | - | 71 W/m² | - |
| 1777758176 | 16.67° C | 43% | 1008.6 hPa | 0 mm | - | 127 W/m² | - |
| 1777757874 | 17.22° C | 45% | 1008.4 hPa | 0 mm | - | 175 W/m² | - |
| 1777757571 | 17.22° C | 44% | 1008.9 hPa | 0 mm | - | 172 W/m² | - |
| 1777757270 | 17.22° C | 40% | 1008.7 hPa | 0 mm | - | 162 W/m² | - |
| 1777756968 | 17.22° C | 44% | 1008.9 hPa | 0 mm | - | 142 W/m² | - |
| 1777756663 | 17.22° C | 42% | 1009 hPa | 0 mm | - | 111 W/m² | - |
* Rain latest hour (hover to see other rain measurements)
** Current wind speed in m/s (hover to see current wind gust speed)